TimeCST,TemperatureF,Dew PointF,Humidity,Sea Level PressureIn,VisibilityMPH,Wind Direction,Wind SpeedMPH,Gust SpeedMPH,PrecipitationIn,Events,Conditions,WindDirDegrees,DateUTC
12:35 AM,37.4,32.0,81,30.36,10.0,Calm,Calm,-,N/A,,Clear,0,2012-11-16 06:35:00
12:55 AM,37.4,32.0,81,30.36,10.0,Calm,Calm,-,N/A,,Clear,0,2012-11-16 06:55:00
1:15 AM,37.4,30.2,75,30.35,10.0,Calm,Calm,-,N/A,,Clear,0,2012-11-16 07:15:00
1:35 AM,35.6,28.4,75,30.35,10.0,Calm,Calm,-,N/A,,Clear,0,2012-11-16 07:35:00
2:15 AM,33.8,30.2,87,30.36,10.0,Calm,Calm,-,N/A,,Clear,0,2012-11-16 08:15:00
2:35 AM,35.6,32.0,87,30.36,10.0,Calm,Calm,-,N/A,,Clear,0,2012-11-16 08:35:00
2:55 AM,35.6,30.2,81,30.36,10.0,Calm,Calm,-,N/A,,Clear,0,2012-11-16 08:55:00
3:16 AM,35.6,32.0,87,30.36,10.0,Calm,Calm,-,N/A,,Clear,0,2012-11-16 09:16:00
3:35 AM,35.6,30.2,81,30.36,5.0,Calm,Calm,-,N/A,,Clear,0,2012-11-16 09:35:00
3:55 AM,35.6,30.2,81,30.36,10.0,Calm,Calm,-,N/A,,Clear,0,2012-11-16 09:55:00
4:35 AM,33.8,30.2,87,30.37,10.0,Calm,Calm,-,N/A,,Clear,0,2012-11-16 10:35:00
4:55 AM,32.0,28.4,87,30.37,10.0,Calm,Calm,-,N/A,,Clear,0,2012-11-16 10:55:00
5:15 AM,30.2,28.4,93,30.37,7.0,Calm,Calm,-,N/A,,Clear,0,2012-11-16 11:15:00
5:36 AM,32.0,28.4,87,30.37,6.0,Calm,Calm,-,N/A,,Clear,0,2012-11-16 11:36:00
5:55 AM,30.2,26.6,86,30.38,9.0,Calm,Calm,-,N/A,,Clear,0,2012-11-16 11:55:00
6:15 AM,30.2,28.4,93,30.39,10.0,Calm,Calm,-,N/A,,Clear,0,2012-11-16 12:15:00
6:55 AM,30.2,28.4,93,30.39,10.0,Calm,Calm,-,N/A,,Clear,0,2012-11-16 12:55:00
7:15 AM,30.2,28.4,93,30.39,7.0,Calm,Calm,-,N/A,,Clear,0,2012-11-16 13:15:00
7:35 AM,33.8,30.2,87,30.40,5.0,Calm,Calm,-,N/A,,Clear,0,2012-11-16 13:35:00
7:55 AM,35.6,30.2,81,30.40,5.0,Calm,Calm,-,N/A,,Clear,0,2012-11-16 13:55:00
8:15 AM,39.2,32.0,75,30.41,10.0,Calm,Calm,-,N/A,,Clear,0,2012-11-16 14:15:00
8:35 AM,42.8,32.0,66,30.42,10.0,Calm,Calm,-,N/A,,Clear,0,2012-11-16 14:35:00
9:15 AM,48.2,33.8,58,30.42,10.0,Calm,Calm,-,N/A,,Clear,0,2012-11-16 15:15:00
9:35 AM,50.0,33.8,54,30.43,10.0,Calm,Calm,-,N/A,,Clear,0,2012-11-16 15:35:00
9:55 AM,51.8,33.8,50,30.43,10.0,Calm,Calm,-,N/A,,Clear,0,2012-11-16 15:55:00
10:16 AM,53.6,33.8,47,30.43,10.0,Calm,Calm,-,N/A,,Clear,0,2012-11-16 16:16:00
10:35 AM,55.4,32.0,41,30.43,10.0,Calm,Calm,-,N/A,,Clear,0,2012-11-16 16:35:00
10:55 AM,57.2,32.0,38,30.43,10.0,SE,5.8,-,N/A,,Clear,130,2012-11-16 16:55:00
11:35 AM,59.0,30.2,34,30.41,10.0,East,3.5,-,N/A,,Clear,100,2012-11-16 17:35:00
11:55 AM,59.0,30.2,34,30.40,10.0,Calm,Calm,-,N/A,,Clear,0,2012-11-16 17:55:00
12:15 PM,59.0,30.2,34,30.39,10.0,East,4.6,-,N/A,,Clear,80,2012-11-16 18:15:00
12:55 PM,60.8,28.4,29,30.38,10.0,East,8.1,-,N/A,,Clear,80,2012-11-16 18:55:00
1:15 PM,60.8,28.4,29,30.37,10.0,ENE,3.5,-,N/A,,Clear,60,2012-11-16 19:15:00
1:55 PM,60.8,30.2,31,30.36,10.0,Calm,Calm,-,N/A,,Clear,0,2012-11-16 19:55:00
2:35 PM,60.8,30.2,31,30.35,10.0,Calm,Calm,-,N/A,,Clear,0,2012-11-16 20:35:00
2:55 PM,60.8,30.2,31,30.35,10.0,East,6.9,-,N/A,,Clear,90,2012-11-16 20:55:00
2:56 PM,62.6,30.2,30,30.35,10.0,East,8.1,-,N/A,,Clear,80,2012-11-16 20:56:00
3:15 PM,62.6,30.2,30,30.35,10.0,Calm,Calm,-,N/A,,Clear,0,2012-11-16 21:15:00
3:35 PM,60.8,28.4,29,30.35,10.0,Calm,Calm,-,N/A,,Clear,0,2012-11-16 21:35:00
4:15 PM,60.8,28.4,29,30.35,10.0,ESE,4.6,-,N/A,,Clear,110,2012-11-16 22:15:00
4:35 PM,59.0,28.4,31,30.35,10.0,Calm,Calm,-,N/A,,Clear,0,2012-11-16 22:35:00
4:55 PM,57.2,28.4,33,30.35,10.0,East,4.6,-,N/A,,Clear,80,2012-11-16 22:55:00
5:15 PM,55.4,28.4,36,30.35,10.0,East,4.6,-,N/A,,Clear,80,2012-11-16 23:15:00
5:35 PM,55.4,28.4,36,30.35,10.0,East,3.5,-,N/A,,Clear,90,2012-11-16 23:35:00
5:55 PM,53.6,28.4,38,30.35,10.0,East,4.6,-,N/A,,Clear,80,2012-11-16 23:55:00
6:35 PM,51.8,28.4,41,30.36,10.0,East,5.8,-,N/A,,Clear,80,2012-11-17 00:35:00
7:15 PM,50.0,28.4,43,30.36,10.0,East,5.8,-,N/A,,Clear,90,2012-11-17 01:15:00
7:55 PM,50.0,28.4,43,30.36,10.0,East,5.8,-,N/A,,Clear,80,2012-11-17 01:55:00
8:15 PM,48.2,28.4,46,30.36,10.0,East,4.6,-,N/A,,Clear,100,2012-11-17 02:15:00
8:35 PM,46.4,28.4,50,30.37,10.0,ESE,3.5,-,N/A,,Clear,110,2012-11-17 02:35:00
8:56 PM,44.6,28.4,53,30.37,10.0,SE,3.5,-,N/A,,Clear,130,2012-11-17 02:56:00
9:15 PM,44.6,28.4,53,30.38,10.0,SSE,5.8,-,N/A,,Clear,160,2012-11-17 03:15:00
9:56 PM,44.6,28.4,53,30.38,10.0,SE,5.8,-,N/A,,Clear,140,2012-11-17 03:56:00
10:15 PM,44.6,28.4,53,30.38,10.0,SSE,5.8,-,N/A,,Clear,150,2012-11-17 04:15:00
10:35 PM,44.6,28.4,53,30.38,10.0,SE,6.9,-,N/A,,Clear,140,2012-11-17 04:35:00
11:15 PM,42.8,26.6,53,30.38,10.0,SE,4.6,-,N/A,,Clear,140,2012-11-17 05:15:00
11:35 PM,42.8,28.4,57,30.38,10.0,SE,3.5,-,N/A,,Clear,140,2012-11-17 05:35:00
11:55 PM,41.0,26.6,57,30.38,10.0,SE,3.5,-,N/A,,Clear,140,2012-11-17 05:55:00